Regional Weather Roundup
Issued by NWS Kansas City/Pleasant Hill, MO

Home | Current Version | Previous Version | Graphics & Text | Print | Product List | Glossary Off
Versions: 1 2 3 4 5 6 7 8 9 10 11 12 13 14 15 16 17 18 19 20 21 22 23 24 25 26 27 28 29 30 31 32 33 34 35 36 37 38 39 40 41 42 43 44 45 46 47 48 49 50

000
ASUS43 KEAX 032310
RWREAX

WEATHER ROUNDUP FOR EASTERN KANSAS AND NORTHWEST MISSOURI
NATIONAL WEATHER SERVICE KANSAS CITY/PLEASANT HILL MO
600 PM CDT FRI JUL 03 2015

KSZ040-057-103>105-MOZ028-029-037-043-040000-
...KANSAS CITY METROPOLITAN AREA...

CITY           SKY/WX    TMP DP  RH WIND       PRES   REMARKS
K.C. INTL      SUNNY     79  56  45 CALM      29.94F
K.C. DOWNTOWN  SUNNY     80  56  43 NE3       29.93S
LEES SUMMIT    SUNNY     78  58  49 NE8       29.94S
OLATHE - IXD   SUNNY     79  59  50 N10       29.94S
OLATHE - OJC   SUNNY     79  57  46 NE9       29.93S
LAWRENCE       SUNNY     80  59  48 NE7       29.94S

$$

MOZ001>008-011>017-020>025-030>033-038>040-044>046-053-054-040000-
...NORTHERN AND CENTRAL MISSOURI...

CITY           SKY/WX    TMP DP  RH WIND       PRES   REMARKS
ST. JOSEPH     MOSUNNY   80  56  43 NE5       29.95S
MOSBY          CLEAR     79  55  44 NE6       29.93S
HARRISONVILLE  SUNNY     81  61  50 NE7       29.96R
WARRENSBURG    SUNNY     77  59  53 N6        29.92S
WHITEMAN AFB   SUNNY     79  60  52 NE9       29.92S
CLINTON        MOSUNNY   81  64  57 NE8       29.92S
SEDALIA        SUNNY     80  61  52 N6        29.94S
WARSAW         FAIR      79  59  50 NE7       29.92F
CHILLICOTHE      N/A     80  60  50 NW3       29.95S
KIRKSVILLE     SUNNY     78  58  49 N5        29.95S

$$

MOZ041-047>049-056>058-063>065-088>090-097-040000-
...EASTERN AND SOUTHERN MISSOURI...

CITY           SKY/WX    TMP DP  RH WIND       PRES   REMARKS
ST. LOUIS INTL MOSUNNY   81  66  60 N12       29.88F
SPIRIT OF STL  MOSUNNY   81  66  60 NE6       29.87F
COLUMBIA       SUNNY     79  61  53 N7        29.92S
JEFFERSON CITY MOSUNNY   80  59  48 NE8       29.90S
MEXICO         SUNNY     81  64  57 NE5       29.92F HAZE
ROLLA          SUNNY     78  61  55 NE9       29.90S
LEBANON        MOSUNNY   75  66  73 MISG      29.93S
OSAGE BEACH    SUNNY     79  61  53 N5        29.92R
SPRINGFIELD    PTSUNNY   78  66  66 NE9       29.90S
BRANSON        PTSUNNY   75  72  88 CALM      29.91S
JOPLIN         CLOUDY    77  69  76 NE7       29.90F
WEST PLAINS    LGT RAIN  75  69  81 NE5       29.91F
MALDEN         CLOUDY    81  72  74 W9        29.88R THUNDER

$$

IAZ060-094-KSZ022-034>040-054-083-096-NEZ052-066-093-040000-
...KANSAS...SOUTHEAST NEBRASKA AND IOWA...

CITY           SKY/WX    TMP DP  RH WIND       PRES   REMARKS
TOPEKA         SUNNY     80  57  45 NE6       29.95S
MANHATTAN      PTSUNNY   82  62  50 NE7       29.95S
EMPORIA        MOSUNNY   80  64  58 NE12      29.94S
CHANUTE        CLOUDY    82  67  60 NE13G22   29.91S
WICHITA        MOSUNNY   84  63  49 NE13      29.93S
OMAHA          SUNNY     79  51  37 N6        29.96F
LINCOLN        PTSUNNY   77  60  55 CALM      29.98S
FALLS CITY     SUNNY     80  57  45 VRB6      29.95S HAZE
LAMONI         SUNNY     78  57  48 N6        29.95F
DES MOINES     SUNNY     80  54  40 VRB3      29.95S

$$




USA.gov is the U.S. government's official web portal to all federal, state and local government web resources and services.